Via Padova 77, Lido di Jesolo (Venezia)

La nostra Estate sotto il sole di Jesolo

 

Quest'estate vi aspettano vacanze indimenticabili, giornate di sole da maggio a settembre. Venite a rilassarvi ed a godere dei tramonti meravigliosi, dai colori sgargianti e caldi, in una delle location più suggestive del litorale di Jesolo Lido, il Faro.

 

Giorno Ora Previsione Temperatura Umidità Vento
  Ven 15 18:00 7.28° 93.0% 1.70 Km/h
  Ven 15 21:00 7.21° 97.0% 4.84 Km/h
  Sab 16 00:00 5.46° 90.6% 7.25 Km/h
  Sab 16 03:00 4.85° 91.4% 4.06 Km/h
  Sab 16 06:00 4.32° 95.4% 2.37 Km/h
  Sab 16 09:00 6.40° 84.0% 4.27 Km/h
  Sab 16 12:00 7.15° 82.5% 4.48 Km/h
  Sab 16 15:00 6.85° 81.5% 3.40 Km/h
  Sab 16 18:00 5.20° 83.7% 3.55 Km/h
  Sab 16 21:00 4.21° 80.2% 2.98 Km/h
  Dom 17 00:00 3.53° 71.9% 3.04 Km/h
  Dom 17 03:00 1.53° 68.2% 3.29 Km/h
  Dom 17 06:00 2.57° 54.8% 1.90 Km/h
  Dom 17 09:00 1.74° 55.2% 1.39 Km/h
  Dom 17 12:00 5.19° 58.2% 1.65 Km/h
  Dom 17 15:00 4.26° 56.5% 1.39 Km/h
  Dom 17 18:00 3.64° 45.3% 2.06 Km/h
  Dom 17 21:00 1.79° 58.4% 2.47 Km/h
  Lun 18 00:00 0.54° 69.1% 2.83 Km/h
  Lun 18 03:00 1.05° 58.6% 2.88 Km/h
  Lun 18 06:00 -0.55° 66.7% 2.62 Km/h
VERIFICA DISPONIBILITA
I NOSTRI CONTATTI
fatti furbo fatti furbo